Gander International Airport

Jump to: basic info | weather | frequencies | runways | comments

Related pages: nearby airports | nearby navaids | notams | map

Basic information (top)

Codes: YQX CYQX
Location: lon 48.936901, lat -54.568100, elev 496 ft / 151 m msl
Status: medium_airport
Scheduled airline service: yes
Links: Wikipedia Mobile

Weather (top)

Current conditions (rec'd 2014/10/22 22:00Z):

CYQX 222200Z 01004KT 20SM BKN036 07/03 A3045 RMK SC7 SLP317

Airport forecast (rec'd 2014/10/22 18:42Z):

TAF CYQX 221740Z 2218/2318 VRB03KT P6SM BKN030 
      TEMPO 2218/2302 SCT030 
     FM230200 VRB03KT P6SM BKN020 
      TEMPO 2302/2316 SCT020 PROB30 2303/2311 1/2SM FG VV002 
     FM231600 18006KT P6SM SCT025 
      RMK NXT FCST BY 230000Z

Frequencies (top)

Verify before use: may be inaccurate or out of date.

A/D: 128.5 MHz (APP/DEP)
ATIS: 124.8 MHz (ATIS)
GND: 121.9 MHz (GND)
OPS: 128.85 MHz (OUTCAST OPS)
RCO: 126.7 MHz (HALIFAX RDO)
TWR: 118.1 MHz (TWR)

Runways (top)

03/21: 10,200 x 200 ft (3,109 x 61 m) — paved — lighted

09/27 [CLOSED]: 1,875 x 50 ft (572 x 15 m) — paved — not lighted

13/31: 8,900 x 200 ft (2,713 x 61 m) — paved — lighted

Latest comments (top)

Gander hospitality: Our USAirways flight from Dublin to ... [read]

More... (top)

See also NOTAMs and nearby airports and navaids, or visit the Gander International Airport page at the main OurAirports website..